Hourly Weather Brecon

Today, 10 August, Monday

Time Temperature Precipitation Wind Pressure Humidity
00:00 +17°C° 0 mm 2 mps 746 mmHg 92%
01:00 +17°C° 0.3 mm 2 mps 746 mmHg 93%
02:00 +17°C° 0.3 mm 2 mps 746 mmHg 95%
03:00 +17°C° 0.3 mm 2 mps 745 mmHg 96%
04:00 +17°C° 0.8 mm 3 mps 745 mmHg 96%
05:00 +18°C° 0.8 mm 3 mps 745 mmHg 96%
06:00 +18°C° 0 mm 2 mps 745 mmHg 93%
07:00 +19°C° 0.3 mm 2 mps 745 mmHg 91%
08:00 +19°C° 0.3 mm 3 mps 745 mmHg 88%
09:00 +20°C° 0.3 mm 3 mps 745 mmHg 86%
10:00 +21°C° 0.2 mm 3 mps 745 mmHg 82%
11:00 +24°C° 0.2 mm 3 mps 745 mmHg 77%
12:00 +25°C° 0.2 mm 3 mps 745 mmHg 73%
13:00 +26°C° 0 mm 3 mps 745 mmHg 72%
14:00 +26°C° 0 mm 3 mps 745 mmHg 71%
15:00 +27°C° 0 mm 3 mps 745 mmHg 70%
16:00 +27°C° 0.4 mm 3 mps 744 mmHg 74%
17:00 +26°C° 0.4 mm 3 mps 744 mmHg 77%
18:00 +26°C° 0.4 mm 3 mps 744 mmHg 81%
19:00 +24°C° 0.2 mm 3 mps 744 mmHg 85%
20:00 +22°C° 0.2 mm 3 mps 744 mmHg 88%
21:00 +20°C° 0.2 mm 2 mps 744 mmHg 92%
22:00 +20°C° 0 mm 2 mps 745 mmHg 93%
23:00 +20°C° 0 mm 2 mps 745 mmHg 94%

Tomorrow, 11 August, Tuesday

Time Temperature Precipitation Wind Pressure Humidity
00:00 +20°C° 0 mm 1 mps 745 mmHg 96%
01:00 +20°C° 0 mm 1 mps 745 mmHg 96%
02:00 +20°C° 0 mm 1 mps 744 mmHg 96%
03:00 +19°C° 0 mm 1 mps 744 mmHg 97%
04:00 +19°C° 0 mm 1 mps 744 mmHg 96%
05:00 +20°C° 0 mm 1 mps 744 mmHg 96%
06:00 +20°C° 0 mm 1 mps 744 mmHg 95%
07:00 +21°C° 0 mm 1 mps 744 mmHg 91%
08:00 +23°C° 0 mm 1 mps 745 mmHg 86%
09:00 +24°C° 0 mm 1 mps 745 mmHg 81%
10:00 +25°C° 0.1 mm 1 mps 745 mmHg 77%
11:00 +26°C° 0.1 mm 2 mps 745 mmHg 72%
12:00 +27°C° 0.1 mm 2 mps 745 mmHg 67%
13:00 +28°C° 0.3 mm 2 mps 745 mmHg 66%
14:00 +29°C° 0.3 mm 2 mps 745 mmHg 64%
15:00 +29°C° 0.3 mm 2 mps 744 mmHg 63%
16:00 +28°C° 1.1 mm 2 mps 744 mmHg 69%
17:00 +27°C° 1.1 mm 2 mps 744 mmHg 76%
18:00 +26°C° 1.1 mm 2 mps 744 mmHg 82%
19:00 +24°C° 0.1 mm 2 mps 744 mmHg 86%
20:00 +22°C° 0.1 mm 3 mps 744 mmHg 89%
21:00 +20°C° 0.1 mm 3 mps 744 mmHg 93%
22:00 +20°C° 0 mm 2 mps 744 mmHg 94%
23:00 +20°C° 0 mm 2 mps 744 mmHg 94%

Day after tomorrow, 12 August, Wednesday

Time Temperature Precipitation Wind Pressure Humidity
00:00 +19°C° 0 mm 2 mps 744 mmHg 95%
01:00 +19°C° 0 mm 2 mps 744 mmHg 95%
02:00 +19°C° 0 mm 2 mps 744 mmHg 96%
03:00 +19°C° 0 mm 1 mps 744 mmHg 96%
04:00 +20°C° 0 mm 1 mps 744 mmHg 96%
05:00 +20°C° 0 mm 1 mps 744 mmHg 96%
06:00 +20°C° 0 mm 1 mps 743 mmHg 96%
07:00 +21°C° 0 mm 1 mps 744 mmHg 93%
08:00 +22°C° 0 mm 1 mps 744 mmHg 91%
09:00 +23°C° 0 mm 1 mps 744 mmHg 88%
10:00 +24°C° 0 mm 1 mps 744 mmHg 86%
11:00 +24°C° 0 mm 1 mps 744 mmHg 84%
12:00 +25°C° 0 mm 2 mps 744 mmHg 82%
13:00 +25°C° 0 mm 1 mps 744 mmHg 81%
14:00 +25°C° 0 mm 1 mps 744 mmHg 79%
15:00 +26°C° 0 mm 1 mps 744 mmHg 78%
16:00 +25°C° 1.2 mm 1 mps 743 mmHg 82%
17:00 +24°C° 1.2 mm 1 mps 743 mmHg 86%
18:00 +24°C° 1.2 mm 1 mps 743 mmHg 90%
19:00 +23°C° 0.6 mm 1 mps 743 mmHg 91%
20:00 +22°C° 0.6 mm 1 mps 743 mmHg 93%
21:00 +22°C° 0.6 mm 1 mps 743 mmHg 94%
22:00 +21°C° 0.8 mm 1 mps 743 mmHg 95%
23:00 +21°C° 0.8 mm 1 mps 743 mmHg 95%

13 August, Thursday

Time Temperature Precipitation Wind Pressure Humidity
00:00 +20°C° 0.8 mm 1 mps 743 mmHg 96%
01:00 +20°C° 0.3 mm 1 mps 742 mmHg 97%
02:00 +20°C° 0.3 mm 1 mps 742 mmHg 97%
03:00 +20°C° 0.3 mm 1 mps 742 mmHg 98%
04:00 +20°C° 0 mm 1 mps 742 mmHg 97%
05:00 +20°C° 0 mm 1 mps 742 mmHg 97%
06:00 +20°C° 0 mm 1 mps 742 mmHg 96%
07:00 +21°C° 0 mm 1 mps 742 mmHg 93%
08:00 +23°C° 0 mm 1 mps 742 mmHg 89%
09:00 +24°C° 0 mm 1 mps 742 mmHg 85%
10:00 +24°C° 0.8 mm 1 mps 742 mmHg 82%
11:00 +25°C° 0.8 mm 2 mps 742 mmHg 80%
12:00 +26°C° 0.8 mm 2 mps 742 mmHg 77%
13:00 +25°C° 1.7 mm 2 mps 742 mmHg 80%
14:00 +25°C° 1.7 mm 2 mps 742 mmHg 83%
15:00 +24°C° 1.7 mm 3 mps 742 mmHg 86%
16:00 +22°C° 1.3 mm 3 mps 742 mmHg 89%
17:00 +21°C° 1.3 mm 2 mps 742 mmHg 92%
18:00 +20°C° 1.3 mm 2 mps 742 mmHg 95%
19:00 +20°C° 2.6 mm 2 mps 742 mmHg 96%
20:00 +20°C° 2.6 mm 2 mps 742 mmHg 97%
21:00 +19°C° 2.6 mm 2 mps 742 mmHg 98%
22:00 +19°C° 2.6 mm 2 mps 742 mmHg 98%
23:00 +19°C° 2.6 mm 2 mps 742 mmHg 98%

14 August, Friday

Time Temperature Precipitation Wind Pressure Humidity
00:00 +19°C° 2.6 mm 2 mps 742 mmHg 98%
01:00 +19°C° 2.2 mm 2 mps 742 mmHg 98%
02:00 +19°C° 2.2 mm 2 mps 742 mmHg 98%
03:00 +19°C° 2.2 mm 2 mps 742 mmHg 98%
04:00 +18°C° 1.1 mm 2 mps 742 mmHg 98%
05:00 +18°C° 1.1 mm 2 mps 742 mmHg 98%
06:00 +18°C° 1.1 mm 3 mps 742 mmHg 98%
07:00 +18°C° 0.3 mm 3 mps 742 mmHg 97%
08:00 +18°C° 0.3 mm 3 mps 742 mmHg 96%
09:00 +18°C° 0.3 mm 3 mps 743 mmHg 95%
10:00 +19°C° 0.1 mm 3 mps 743 mmHg 94%
11:00 +19°C° 0.1 mm 3 mps 743 mmHg 92%
12:00 +19°C° 0.1 mm 3 mps 743 mmHg 91%
13:00 +20°C° 0.1 mm 4 mps 743 mmHg 90%
14:00 +20°C° 0.1 mm 4 mps 743 mmHg 88%
15:00 +20°C° 0.1 mm 4 mps 743 mmHg 87%
16:00 +19°C° 0.1 mm 4 mps 743 mmHg 88%
17:00 +19°C° 0.1 mm 4 mps 743 mmHg 89%
18:00 +18°C° 0.1 mm 4 mps 744 mmHg 90%
19:00 +18°C° 0 mm 3 mps 744 mmHg 92%
20:00 +17°C° 0 mm 3 mps 744 mmHg 94%
21:00 +16°C° 0 mm 2 mps 744 mmHg 96%
22:00 +16°C° 0 mm 2 mps 744 mmHg 96%
23:00 +15°C° 0 mm 2 mps 744 mmHg 96%

15 August, Saturday

Time Temperature Precipitation Wind Pressure Humidity
00:00 +15°C° 0 mm 2 mps 744 mmHg 96%
01:00 +14°C° 0 mm 2 mps 744 mmHg 96%
02:00 +14°C° 0 mm 2 mps 744 mmHg 95%
03:00 +14°C° 0 mm 1 mps 744 mmHg 95%
04:00 +14°C° 0 mm 1 mps 744 mmHg 94%
05:00 +14°C° 0 mm 1 mps 744 mmHg 94%
06:00 +15°C° 0 mm 1 mps 744 mmHg 93%
07:00 +16°C° 0 mm 1 mps 744 mmHg 88%
08:00 +19°C° 0 mm 1 mps 744 mmHg 83%
09:00 +20°C° 0 mm 1 mps 744 mmHg 77%
10:00 +21°C° 0 mm 1 mps 744 mmHg 73%
11:00 +21°C° 0 mm 2 mps 744 mmHg 69%
12:00 +23°C° 0 mm 2 mps 744 mmHg 65%
13:00 +23°C° 0.1 mm 2 mps 744 mmHg 66%
14:00 +23°C° 0.1 mm 2 mps 744 mmHg 66%
15:00 +23°C° 0.1 mm 2 mps 744 mmHg 66%
16:00 +22°C° 0.1 mm 1 mps 744 mmHg 70%
17:00 +22°C° 0.1 mm 1 mps 744 mmHg 74%
18:00 +21°C° 0.1 mm 1 mps 744 mmHg 78%
19:00 +20°C° 0 mm 1 mps 744 mmHg 81%
20:00 +19°C° 0 mm 1 mps 743 mmHg 84%
21:00 +16°C° 0 mm 1 mps 743 mmHg 87%
22:00 +16°C° 0.3 mm 1 mps 743 mmHg 89%
23:00 +16°C° 0.3 mm 1 mps 743 mmHg 90%
Show more